Weather History for Fort Myers, FL

Change the Weather History Date:

Saturday, December 22, 2012

  Actual Average Record
Temperature  
Mean Temperature 56 °F 66 °F  
Max Temperature 66 °F 76 °F 86 °F (1956)
Min Temperature 45 °F 55 °F 35 °F (1960)
Degree Days  
Heating Degree Days 9 3  
Month to date heating degree days 11 44  
Since 1 July heating degree days 26 62  
Cooling Degree Days 0 3  
Month to date cooling degree days 141 94  
Year to date cooling degree days 4354 3957  
Growing Degree Days 6 (Base 50)    
Moisture  
Dew Point 31 °F    
Average Humidity 46    
Maximum Humidity 70    
Minimum Humidity 16    
Precipitation  
Precipitation 0.00 in 0.06 in 2.04 in (1925)
Month to date precipitation 2.00 1.15  
Year to date precipitation 49.43 55.37  
Sea Level Pressure  
Sea Level Pressure 30.25 in    
Wind  
Wind Speed 7 mph (North)    
Max Wind Speed 15 mph    
Max Gust Speed 20 mph    
Visibility 10 miles    
Events      
T = Trace of Precipitation, MM = Missing Value Source: NWS Daily Summary

Daily Weather History Graph

Daily Weather History Graph

Search for Another Location

Airport:

Trip Planner

Search our weather history database for the weather conditions in past years. The results will help you decide how hot, cold, wet, or windy it might be!

Date:

Astronomy

Dec. 22, 2012 Rise Set
Actual Time 7:12 AM EST 5:40 PM EST
Civil Twilight 6:46 AM EST 6:05 PM EST
Nautical Twilight 6:17 AM EST 6:34 PM EST
Astronomical Twilight 5:49 AM EST 7:03 PM EST
Moon 1:42 PM EST (12/22) 2:13 AM EST (12/22)
Length of Visible Light 11h 19m
Length of Day
10h 28m
Waxing Gibbous, 73% of the Moon is Illuminated
Dec 22
Waxing Gibbous
Dec 28
Full
Jan 4
Last Quarter
Jan 11
New
Jan 18
First Quarter

Hourly Weather History & Observations

Time (EST) Temp. Windchill Dew Point Humidity Pressure Visibility Wind Dir Wind Speed Gust Speed Precip Events Conditions
12:53 AM 52.0 °F - 39.9 °F 63% 30.22 in 10.0 mi NNW 8.1 mph - N/A   Clear
1:53 AM 51.1 °F - 39.9 °F 66% 30.22 in 10.0 mi NNW 8.1 mph - N/A   Clear
2:53 AM 52.0 °F - 39.0 °F 61% 30.22 in 10.0 mi North 10.4 mph - N/A   Clear
3:53 AM 51.1 °F - 37.0 °F 59% 30.22 in 10.0 mi North 8.1 mph - N/A   Clear
4:53 AM 50.0 °F - 36.0 °F 59% 30.22 in 10.0 mi North 10.4 mph - N/A   Clear
5:53 AM 46.9 °F - 36.0 °F 66% 30.23 in 10.0 mi NNE 5.8 mph - N/A   Clear
6:53 AM 45.0 °F 40.6 °F 35.1 °F 68% 30.26 in 10.0 mi NNE 8.1 mph - N/A   Clear
7:53 AM 46.0 °F 41.4 °F 32.0 °F 58% 30.29 in 10.0 mi NNE 9.2 mph - N/A   Clear
8:53 AM 48.9 °F - 30.9 °F 50% 30.30 in 10.0 mi North 10.4 mph - N/A   Clear
9:53 AM 52.0 °F - 32.0 °F 47% 30.32 in 10.0 mi North 12.7 mph - N/A   Clear
10:53 AM 55.0 °F - 30.0 °F 38% 30.30 in 10.0 mi North 10.4 mph - N/A   Clear
11:53 AM 60.1 °F - 27.0 °F 28% 30.28 in 10.0 mi North 9.2 mph 17.3 mph N/A   Clear
12:53 PM 63.0 °F - 23.0 °F 22% 30.25 in 10.0 mi North 10.4 mph 18.4 mph N/A   Clear
1:53 PM 64.0 °F - 24.1 °F 22% 30.23 in 10.0 mi NNW 10.4 mph - N/A   Clear
2:53 PM 64.9 °F - 19.9 °F 18% 30.22 in 10.0 mi North 9.2 mph - N/A   Clear
3:53 PM 66.0 °F - 19.9 °F 17% 30.21 in 10.0 mi North 10.4 mph - N/A   Clear
4:53 PM 64.0 °F - 21.0 °F 19% 30.22 in 10.0 mi NNW 8.1 mph - N/A   Clear
5:53 PM 60.1 °F - 21.9 °F 23% 30.22 in 10.0 mi North 4.6 mph - N/A   Clear
6:53 PM 54.0 °F - 30.0 °F 40% 30.24 in 10.0 mi Calm Calm - N/A   Clear
7:53 PM 51.1 °F - 33.1 °F 50% 30.25 in 10.0 mi Calm Calm - N/A   Clear
8:53 PM 51.1 °F - 35.1 °F 54% 30.25 in 10.0 mi Calm Calm - N/A   Clear
9:53 PM 48.9 °F - 32.0 °F 52% 30.26 in 10.0 mi Calm Calm - N/A   Clear
10:53 PM 48.0 °F - 34.0 °F 58% 30.26 in 10.0 mi NNE 6.9 mph - N/A   Clear
11:53 PM 46.9 °F - 34.0 °F 61% 30.26 in 10.0 mi NE 3.5 mph - N/A   Clear